Location: Trois-Rivi�res
(46.3500°N, 72.5500°W)
Time: 22:04:07
(UTC-04:00)

Vanguard 2 Rocket - All Passes

Search period start: 20 July 2018 00:00
Search period end: 30 July 2018 00:00
Orbit: 554 x 3327 km, 32.9° (Epoch: 20 July)

Date Brightness Start Highest point End Pass type
(mag) Time Alt. Az. Time Alt. Az. Time Alt. Az.
20 Jul - 02:00:04 10° SSE 02:01:44 11° SE 02:03:34 10° SE visible
20 Jul - 04:07:24 10° SW 04:13:23 31° SSE 04:22:55 10° ESE visible
20 Jul - 06:18:35 10° WSW 06:26:48 38° S 06:40:08 10° ESE daylight
20 Jul - 08:31:45 10° WSW 08:41:27 28° SSW 08:55:08 10° SSE daylight
20 Jul - 10:51:26 10° SW 10:56:22 12° SW 11:01:47 10° SSW daylight
21 Jul - 03:09:24 10° SSW 03:14:10 24° SSE 03:21:08 10° ESE visible
21 Jul - 05:19:51 10° WSW 05:26:51 37° S 05:38:22 10° ESE daylight
21 Jul - 07:32:09 10° WSW 07:40:59 31° SSW 07:54:17 10° SE daylight
21 Jul - 09:48:09 10° WSW 09:55:49 16° SSW 10:05:07 10° S daylight
22 Jul - 02:12:01 10° S 02:15:13 15° SSE 02:19:16 10° ESE visible
22 Jul - 04:21:21 10° SW 04:27:15 32° S 04:36:41 10° ESE visible
22 Jul - 06:32:58 10° WSW 06:40:46 33° S 06:53:02 10° SE daylight
22 Jul - 08:47:07 10° WSW 08:55:18 20° SSW 09:06:06 10° SSE daylight
23 Jul - 03:23:06 10° SW 03:27:56 26° SSE 03:35:11 10° ESE visible
23 Jul - 05:34:06 10° WSW 05:40:50 33° S 05:51:38 10° SE daylight
23 Jul - 07:47:06 10° WSW 07:54:57 24° SSW 08:06:03 10° SSE daylight
24 Jul - 02:25:13 10° SSW 02:28:53 19° SSE 02:33:50 10° ESE visible
24 Jul - 04:35:29 10° WSW 04:41:13 31° S 04:50:14 10° ESE visible
24 Jul - 06:47:39 10° WSW 06:54:47 26° SSW 07:05:24 10° SSE daylight
24 Jul - 09:04:17 10° SW 09:09:11 13° SSW 09:14:54 10° S daylight
25 Jul - 01:28:10 10° S 01:30:02 12° SSE 01:32:08 10° SE visible
25 Jul - 03:37:05 10° SW 03:41:51 27° S 03:49:00 10° ESE visible
25 Jul - 05:48:36 10° WSW 05:54:53 27° S 06:04:29 10° SE daylight
25 Jul - 08:02:58 10° WSW 08:08:55 16° SSW 08:16:33 10° S daylight
26 Jul - 02:38:54 10° SW 02:42:43 21° SSE 02:47:58 10° ESE visible
26 Jul - 04:49:51 10° WSW 04:55:15 27° S 05:03:29 10° SE visible
26 Jul - 07:02:54 10° WSW 07:08:50 19° SSW 07:16:54 10° SSE daylight
27 Jul - 01:41:05 10° SSW 01:43:47 15° SSE 01:47:02 10° SE visible
27 Jul - 03:51:17 10° SW 03:55:52 25° S 04:02:34 10° SE visible
27 Jul - 06:03:30 10° WSW 06:08:58 20° SSW 06:16:42 10° SSE daylight
28 Jul - 02:52:55 10° SW 02:56:41 22° S 03:01:50 10° SE visible
28 Jul - 05:04:30 10° WSW 05:09:21 21° S 05:16:14 10° SE daylight
28 Jul - 07:20:03 10° SW 07:22:55 11° SSW 07:26:12 10° S daylight
29 Jul - 01:54:44 10° SSW 01:57:40 17° SSE 02:01:17 10° SE visible
29 Jul - 04:05:46 10° SW 04:09:56 21° S 04:15:45 10° SE visible
29 Jul - 06:19:24 10° SW 06:23:06 14° SSW 06:27:38 10° S daylight
